Location: Oberkirch
(48.5323°N, 8.0787°E)
Time: 14:17:50
(UTC+00:00)

Tiros 1 despin weight - All Passes

Search period start: 10 February 2026 00:00
Search period end: 20 February 2026 00:00
Orbit: 557 x 594 km, 48.2° (Epoch: 8 February)

Date Brightness Start Highest point End Pass type
(mag) Time Alt. Az. Time Alt. Az. Time Alt. Az.
10 Feb - 16:51:22 10° S 16:54:23 19° SE 16:57:25 10° E daylight
10 Feb - 18:30:17 10° WSW 18:34:24 58° SSE 18:38:34 10° E visible
10 Feb - 20:10:41 10° W 20:14:55 87° S 20:19:11 10° E visible
10 Feb - 21:51:16 10° W 21:55:25 56° SSW 21:59:37 10° ESE night (unlit)
10 Feb - 23:32:28 10° W 23:35:26 19° SW 23:38:26 10° S night (unlit)
11 Feb - 16:53:12 10° SSW 16:56:44 27° SSE 17:00:17 10° E daylight
11 Feb - 18:32:44 10° WSW 18:36:55 70° SSE 18:41:08 10° E visible
11 Feb - 20:13:15 10° W 20:17:29 85° S 20:21:45 10° E visible
11 Feb - 21:53:52 10° W 21:57:54 44° SSW 22:01:58 10° SE night (unlit)
11 Feb - 23:35:48 10° WSW 23:37:44 13° SW 23:39:40 10° SSW night (unlit)
12 Feb - 16:55:17 10° SW 16:59:08 36° SSE 17:03:00 10° E daylight
12 Feb - 18:35:15 10° WSW 18:39:27 80° S 18:43:41 10° E visible
12 Feb - 20:15:49 10° W 20:20:02 78° S 20:24:17 10° ESE visible
12 Feb - 21:56:30 10° W 22:00:19 33° SSW 22:04:10 10° SE night (unlit)
13 Feb - 15:19:30 10° S 15:21:43 14° SE 15:23:55 10° ESE daylight
13 Feb - 16:57:32 10° SW 17:01:33 47° SSE 17:05:37 10° E daylight
13 Feb - 18:37:47 10° W 18:42:00 86° S 18:46:14 10° E visible
13 Feb - 20:18:21 10° W 20:22:33 67° SSW 20:26:46 10° ESE visible
13 Feb - 21:59:14 10° W 22:02:42 25° SW 22:06:10 10° SSE night (unlit)
14 Feb - 15:20:54 10° S 15:23:59 20° SE 15:27:05 10° E daylight
14 Feb - 16:59:54 10° WSW 17:04:01 59° SSE 17:08:10 10° E daylight
14 Feb - 18:40:19 10° W 18:44:33 87° S 18:48:47 10° E visible
14 Feb - 20:20:54 10° W 20:25:01 55° SSW 20:29:11 10° ESE visible
14 Feb - 22:02:09 10° W 22:05:01 18° SW 22:07:53 10° S night (unlit)
15 Feb - 15:22:44 10° SSW 15:26:19 27° SSE 15:29:54 10° E daylight
15 Feb - 17:02:19 10° WSW 17:06:31 71° SSE 17:10:43 10° E daylight
15 Feb - 18:42:51 10° W 18:47:04 84° S 18:51:18 10° E visible
15 Feb - 20:23:28 10° W 20:27:28 42° SSW 20:31:29 10° SE visible
15 Feb - 22:05:34 10° WSW 22:07:16 12° SW 22:08:59 10° SSW night (unlit)
16 Feb - 15:24:49 10° SW 15:28:41 37° SSE 15:32:34 10° E daylight
16 Feb - 17:04:48 10° WSW 17:09:01 81° S 17:13:14 10° E daylight
16 Feb - 18:45:23 10° W 18:49:35 77° S 18:53:48 10° ESE visible
16 Feb - 20:26:05 10° W 20:29:51 32° SSW 20:33:38 10° SSE visible
17 Feb - 13:48:53 10° S 13:51:12 15° SE 13:53:32 10° ESE daylight
17 Feb - 15:27:02 10° SW 15:31:05 48° SSE 15:35:08 10° E daylight
17 Feb - 17:07:18 10° W 17:11:31 86° S 17:15:45 10° E daylight
17 Feb - 18:47:53 10° W 18:52:04 66° SSW 18:56:15 10° ESE visible
17 Feb - 20:28:48 10° W 20:32:11 24° SW 20:35:35 10° SSE visible
18 Feb - 13:50:19 10° SSW 13:53:28 21° SE 13:56:37 10° E daylight
18 Feb - 15:29:22 10° WSW 15:33:31 61° SSE 15:37:40 10° E daylight
18 Feb - 17:09:49 10° W 17:14:02 87° S 17:18:15 10° E daylight
18 Feb - 18:50:24 10° W 18:54:30 53° SSW 18:58:37 10° SE visible
18 Feb - 20:31:43 10° W 20:34:28 17° SW 20:37:14 10° S visible
19 Feb - 13:52:08 10° SSW 13:55:46 28° SSE 13:59:23 10° E daylight
19 Feb - 15:31:47 10° WSW 15:35:58 72° SSE 15:40:10 10° E daylight
19 Feb - 17:12:19 10° W 17:16:32 84° S 17:20:45 10° E daylight
19 Feb - 18:52:56 10° W 18:56:54 41° SSW 19:00:53 10° SE visible
19 Feb - 20:35:13 10° WSW 20:36:41 12° SW 20:38:10 10° SSW visible
